Wind_Speed
3 2 2 1 2 2 2 2 2 1 1 0 1 1 2 2 1 1 2 2 1 1 1 0 0 1 1 1 1 2 2 2 3 3 3 4 4 4 4 5 6 5 5
3 3 2 2 2 2 1 1 1 1 1 1 1 0 0 1 1 1 2 2 2 2 2 1 1 1 1 2 2 2 3 3 3 3 4 4 5 5 5 5 6 7 6
3 3 2 2 2 2 1 1 0 1 0 1 1 1 1 2 2 2 2 2 2 2 2 2 1 1 2 2 2 3 4 4 4 4 5 5 5 5 6 5 5 6 7
4 3 2 2 2 2 1 0 1 1 1 1 1 1 2 3 3 3 3 3 2 2 2 2 2 2 2 3 3 3 4 4 4 5 5 5 5 5 6 5 5 6 7
5 4 3 2 2 1 1 1 1 2 2 2 2 2 2 3 3 3 3 3 3 3 3 2 3 3 3 3 3 4 4 4 5 5 5 6 6 6 6 6 6 7 8
6 5 4 3 2 1 1 1 2 2 2 2 2 3 3 3 3 3 3 4 4 4 3 3 2 3 3 4 4 4 5 5 5 6 6 7 7 6 6 6 7 7 8
8 6 4 3 2 1 1 2 2 2 2 1 2 3 3 3 3 3 3 4 4 4 4 3 3 3 4 4 5 5 5 6 6 6 7 7 7 7 7 7 7 8 9
8 6 5 4 2 2 2 1 1 2 3 2 2 3 3 4 4 4 3 4 4 4 4 3 3 3 3 4 5 5 5 6 6 7 7 8 8 8 8 8 8 8 8
8 7 5 4 4 3 2 2 2 3 3 3 3 3 4 4 4 4 4 4 4 4 4 4 4 3 4 4 5 5 6 6 6 7 8 8 9 10 9 9 8 9 9
8 8 7 5 4 3 2 1 3 3 3 3 3 3 3 4 4 4 5 5 5 4 4 4 4 4 4 4 5 6 6 6 7 7 8 8 9 10 11 10 9 9 10
9 8 7 6 5 4 3 2 3 3 3 2 2 3 3 4 4 4 5 5 5 5 5 5 4 5 5 5 5 6 6 6 6 7 7 7 8 9 10 10 10 10 10
9 8 7 6 5 5 4 3 2 2 2 2 3 3 3 4 4 4 5 5 5 5 5 5 5 5 5 5 6 6 6 5 6 6 6 7 7 8 9 9 10 11 11
8 7 7 6 5 5 4 3 2 2 2 3 3 3 4 4 4 4 5 5 5 5 5 5 5 5 6 6 6 5 5 5 5 5 6 6 6 7 8 8 9 9 10
8 7 7 6 5 5 4 3 2 2 3 3 3 3 3 3 4 4 5 5 5 5 5 5 5 6 6 6 5 5 4 4 4 5 5 5 5 6 7 8 9 9 9
8 7 7 7 6 5 5 4 3 3 3 3 2 2 2 3 3 4 4 4 5 5 5 5 6 6 6 6 6 5 5 4 4 4 5 5 5 5 6 8 8 9 9
9 8 7 7 6 5 4 3 3 2 2 2 2 2 2 2 3 4 4 4 5 5 5 6 6 6 6 6 6 6 5 5 5 5 5 5 5 5 5 6 8 8 9
9 8 8 7 6 5 5 4 3 2 2 1 1 2 2 3 3 3 4 4 5 5 6 6 6 6 6 6 6 6 5 5 5 5 5 5 5 5 5 6 7 8 9
9 8 8 7 6 5 5 4 3 2 2 2 2 2 3 3 3 3 3 4 5 5 6 6 6 6 7 7 6 6 5 5 5 5 5 5 5 5 5 5 6 7 8
9 8 8 8 7 6 5 4 4 3 2 2 2 2 2 2 2 3 3 4 5 6 6 6 6 6 7 7 7 6 5 5 5 6 6 6 6 6 6 6 6 7 7
9 8 8 8 7 7 6 5 5 4 3 3 3 2 2 3 3 3 3 4 5 6 6 6 6 6 7 7 7 6 6 5 6 6 6 6 6 6 6 7 7 7 8
8 8 8 8 7 6 6 5 5 4 4 4 4 3 3 3 3 3 3 4 5 5 5 6 6 6 7 7 7 7 6 6 6 6 6 6 6 7 7 7 7 7 8
8 8 8 8 7 6 6 5 5 5 5 5 4 4 4 4 3 3 4 5 5 5 5 6 6 6 7 7 7 7 7 7 6 6 6 6 7 7 7 8 8 8 9
8 8 8 8 7 7 6 6 6 5 5 5 5 4 4 4 4 4 4 4 5 5 5 6 6 7 7 7 7 7 7 7 7 7 7 7 7 7 8 8 8 9 9
9 8 7 7 7 7 7 7 6 6 6 5 5 5 5 5 5 5 5 5 5 5 5 6 6 7 7 7 7 7 7 7 7 7 7 7 8 8 8 9 9 9 9
10 9 8 8 7 7 8 8 7 7 7 6 6 6 6 6 6 6 6 5 5 5 5 6 6 7 7 7 7 7 8 8 8 8 8 8 9 9 9 9 10 10 10
11 10 9 8 8 8 8 8 8 7 7 7 7 7 7 7 7 7 6 6 5 5 6 6 7 7 7 7 7 8 8 8 8 9 9 9 9 10 10 10 11 11 11
Wind_Direction
197 199 189 157 115 108 110 96 73 66 134 103 79 94 86 66 111 113 77 63 58 31 359 350 40 212 232 240 236 243 235 227 224 222 228 235 241 245 242 237 231 233 229
212 212 193 173 131 123 106 84 55 59 70 53 37 27 35 21 25 52 59 42 28 349 329 320 344 269 247 250 243 239 241 240 239 235 235 236 240 245 247 243 236 225 226
218 208 194 180 145 130 129 145 73 52 76 49 23 357 4 26 40 48 44 27 359 334 325 312 304 275 265 259 256 244 241 241 246 244 239 238 239 242 247 247 235 221 225
222 213 208 196 173 137 135 154 352 1 317 30 38 45 45 37 33 30 18 3 350 336 320 309 295 270 271 268 261 250 245 244 250 254 244 239 240 240 242 242 237 229 226
224 228 219 213 199 191 220 290 318 353 342 355 21 18 26 18 14 10 2 355 346 337 316 305 289 273 268 267 257 253 255 253 254 253 246 243 241 242 243 242 240 235 226
230 230 222 217 208 215 266 304 324 331 330 348 18 9 6 5 5 7 1 0 355 351 340 322 299 278 270 267 265 265 265 261 259 257 251 246 244 246 244 240 239 237 230
238 234 233 233 235 255 295 321 330 332 340 1 12 1 359 3 1 5 1 359 360 357 351 335 309 282 271 268 273 275 271 267 260 261 257 253 248 246 243 240 239 238 233
236 235 238 230 238 254 278 342 358 345 1 7 11 9 10 8 10 6 9 8 10 6 357 347 326 300 280 277 285 284 278 272 264 263 264 262 253 251 248 244 238 237 235
234 235 237 238 237 247 257 271 308 338 349 357 3 6 360 1 3 358 358 1 3 3 1 353 342 329 304 291 292 288 283 277 273 267 266 267 261 254 250 246 241 238 237
236 236 235 235 235 242 252 282 313 324 331 345 358 357 353 352 351 353 350 350 354 360 359 350 339 331 315 305 299 295 290 285 283 277 272 269 265 255 251 250 245 241 240
235 235 232 230 233 236 257 282 310 322 326 333 340 340 345 346 347 352 352 351 352 355 354 349 338 329 321 313 307 300 295 291 285 279 276 272 264 253 246 247 245 242 240
235 237 237 232 232 239 253 269 297 313 323 323 324 327 336 339 344 350 352 349 349 350 348 344 340 333 328 319 311 304 299 292 289 285 281 277 266 253 246 245 246 243 242
237 239 240 235 233 238 248 262 281 299 307 306 313 320 327 335 340 343 349 351 349 349 351 346 341 334 327 326 326 314 307 300 298 294 290 287 276 260 252 248 246 245 244
232 231 233 232 230 232 243 255 272 292 305 308 310 310 319 329 335 340 348 349 348 347 352 350 345 338 332 337 341 334 316 307 305 301 300 296 284 269 259 253 250 252 251
227 226 230 227 230 235 243 251 268 293 303 307 311 312 323 332 338 343 350 352 352 351 356 355 354 347 344 346 348 347 334 317 314 309 304 299 290 275 265 258 257 257 258
230 227 230 231 229 229 235 248 265 287 304 321 332 333 335 340 344 349 358 1 2 1 0 360 2 360 355 353 350 348 344 337 326 310 308 301 293 284 280 269 262 262 264
231 231 232 231 226 228 238 246 253 269 284 312 332 342 343 344 350 360 358 357 1 360 360 0 360 356 354 356 355 347 341 340 337 331 324 314 300 290 288 280 265 265 265
231 229 230 230 231 235 242 243 253 268 279 287 298 323 337 343 349 355 356 355 358 0 0 0 360 355 352 352 352 348 343 342 337 334 329 323 314 306 301 295 283 276 274
229 228 230 233 235 237 243 248 257 263 271 269 285 302 319 328 336 341 348 352 354 357 357 359 1 357 354 353 352 349 345 343 340 337 335 330 324 318 308 299 291 286 282
229 231 231 232 234 232 239 244 253 257 258 260 273 287 301 312 324 336 345 348 351 353 353 356 359 358 354 357 358 355 350 342 338 337 335 334 332 326 319 308 300 294 289
230 232 229 228 226 227 237 245 246 253 254 258 266 277 289 300 311 325 333 342 347 349 349 352 353 354 352 353 356 357 352 345 341 341 338 336 331 328 323 316 308 301 299
231 232 227 228 228 233 242 246 248 253 255 252 255 269 280 292 302 312 322 332 337 340 346 350 350 348 347 348 350 353 352 349 346 345 342 336 334 332 328 324 317 307 301
224 225 226 228 230 236 242 243 248 251 256 254 253 262 272 282 291 300 313 322 326 331 337 341 341 341 342 344 346 350 352 351 346 344 340 337 335 334 333 330 325 318 312
223 222 226 230 233 240 245 247 247 251 254 256 252 258 267 276 285 293 302 311 315 321 326 332 336 335 335 339 342 344 345 344 343 341 339 336 332 332 331 330 328 324 316
227 224 229 233 237 244 249 249 247 252 253 253 252 256 264 273 279 286 294 301 308 317 325 327 330 331 330 331 334 338 337 337 336 336 337 335 330 330 331 329 327 325 321
230 228 232 238 243 247 249 249 248 252 255 252 252 256 263 270 276 282 288 295 301 310 317 320 323 325 327 327 329 331 330 329 333 332 332 332 331 330 329 328 326 325 323
Height
5887 5887 5887 5887 5888 5888 5888 5888 5888 5888 5888 5888 5888 5888 5888 5888 5888 5888 5888 5888 5888 5888 5888 5888 5888 5888 5888 5888 5888 5889 5889 5889 5890 5890 5891 5891 5892 5893 5893 5893 5894 5895 5896
5887 5887 5887 5888 5888 5888 5888 5888 5888 5888 5888 5888 5888 5888 5888 5888 5888 5888 5888 5888 5888 5888 5887 5887 5887 5887 5887 5888 5888 5888 5889 5889 5889 5890 5890 5891 5892 5892 5892 5892 5893 5894 5896
5887 5887 5888 5888 5888 5888 5888 5888 5889 5889 5888 5888 5888 5888 5888 5888 5888 5888 5888 5888 5887 5887 5887 5887 5887 5887 5887 5887 5887 5888 5888 5888 5889 5889 5890 5891 5891 5892 5892 5892 5892 5893 5895
5887 5887 5888 5888 5888 5888 5888 5889 5888 5889 5889 5888 5888 5888 5888 5888 5888 5888 5888 5887 5887 5887 5887 5886 5886 5886 5886 5887 5887 5887 5887 5888 5888 5889 5889 5890 5890 5891 5891 5891 5892 5893 5894
5887 5887 5887 5888 5888 5888 5889 5889 5889 5889 5889 5888 5888 5888 5888 5888 5888 5887 5887 5887 5886 5886 5886 5886 5885 5886 5886 5886 5886 5886 5887 5887 5887 5888 5888 5889 5889 5890 5890 5891 5892 5892 5893
5886 5887 5887 5888 5888 5889 5889 5889 5889 5889 5889 5889 5888 5888 5888 5888 5888 5887 5887 5886 5886 5885 5885 5885 5885 5885 5885 5885 5885 5885 5886 5886 5886 5886 5887 5887 5888 5889 5890 5890 5891 5892 5893
5886 5887 5887 5888 5888 5889 5889 5889 5889 5889 5889 5889 5889 5889 5888 5888 5888 5887 5886 5886 5885 5885 5885 5884 5884 5884 5884 5884 5884 5884 5885 5885 5885 5885 5886 5886 5887 5888 5888 5889 5890 5891 5892
5885 5886 5887 5887 5888 5888 5889 5889 5889 5889 5889 5889 5889 5889 5888 5888 5887 5887 5886 5886 5885 5885 5884 5884 5884 5883 5883 5883 5883 5883 5883 5884 5884 5884 5884 5885 5885 5886 5887 5888 5888 5889 5891
5884 5885 5886 5887 5888 5888 5888 5889 5889 5889 5889 5889 5889 5889 5888 5888 5888 5887 5886 5886 5885 5884 5884 5884 5883 5883 5883 5883 5882 5882 5882 5882 5883 5883 5883 5883 5884 5884 5885 5886 5887 5888 5889
5884 5885 5886 5887 5887 5888 5888 5888 5888 5889 5889 5889 5889 5889 5888 5888 5887 5887 5886 5886 5885 5884 5884 5883 5883 5882 5882 5882 5882 5881 5881 5881 5881 5882 5881 5881 5881 5881 5883 5884 5886 5887 5888
5883 5884 5885 5886 5887 5887 5888 5888 5888 5888 5888 5888 5889 5888 5888 5888 5887 5887 5886 5886 5885 5884 5883 5883 5882 5882 5881 5881 5881 5880 5880 5880 5880 5880 5880 5880 5879 5879 5880 5882 5884 5885 5886
5882 5883 5884 5885 5886 5887 5887 5887 5888 5888 5888 5888 5888 5888 5888 5888 5887 5887 5886 5885 5885 5884 5883 5883 5882 5881 5881 5880 5880 5879 5879 5879 5879 5879 5879 5879 5878 5878 5879 5881 5882 5883 5885
5882 5882 5883 5884 5885 5886 5887 5887 5887 5888 5888 5888 5888 5888 5888 5887 5887 5886 5886 5885 5884 5884 5883 5882 5881 5881 5880 5880 5879 5878 5878 5878 5878 5877 5877 5877 5877 5877 5878 5879 5880 5882 5883
5881 5882 5883 5884 5884 5885 5886 5886 5887 5887 5887 5887 5887 5887 5887 5887 5887 5886 5886 5885 5884 5883 5883 5882 5881 5880 5879 5879 5878 5878 5877 5877 5876 5876 5876 5876 5876 5876 5877 5878 5879 5880 5881
5880 5881 5882 5883 5884 5885 5885 5886 5886 5887 5887 5887 5887 5887 5887 5887 5886 5886 5885 5884 5884 5883 5882 5881 5880 5880 5879 5878 5877 5877 5876 5876 5876 5875 5875 5875 5875 5875 5876 5877 5877 5878 5879
5879 5880 5881 5882 5883 5884 5885 5885 5886 5886 5886 5886 5886 5886 5886 5886 5886 5885 5885 5884 5884 5883 5882 5881 5880 5880 5879 5878 5877 5876 5876 5875 5875 5874 5874 5874 5874 5874 5875 5875 5876 5876 5877
5878 5879 5880 5881 5882 5883 5884 5884 5885 5886 5886 5886 5886 5886 5886 5886 5885 5885 5885 5884 5884 5883 5882 5881 5880 5879 5878 5878 5877 5876 5875 5875 5874 5874 5873 5873 5873 5873 5874 5874 5874 5875 5875
5877 5878 5879 5881 5882 5882 5883 5884 5884 5885 5885 5885 5885 5886 5886 5886 5885 5885 5885 5884 5883 5882 5882 5881 5880 5879 5878 5877 5876 5876 5875 5874 5874 5873 5873 5873 5872 5872 5872 5872 5873 5873 5873
5876 5877 5878 5880 5881 5882 5882 5883 5884 5884 5885 5885 5885 5885 5886 5885 5885 5885 5885 5884 5883 5882 5881 5881 5880 5879 5878 5877 5876 5875 5875 5874 5873 5873 5872 5872 5871 5871 5871 5871 5872 5872 5872
5875 5876 5877 5878 5880 5881 5882 5883 5883 5884 5884 5885 5885 5885 5885 5885 5885 5884 5884 5884 5883 5882 5881 5881 5880 5879 5878 5877 5876 5875 5874 5873 5873 5872 5871 5871 5870 5870 5870 5870 5870 5871 5870
5874 5875 5876 5877 5879 5880 5881 5882 5882 5883 5883 5884 5884 5885 5885 5885 5884 5884 5884 5883 5883 5882 5881 5880 5880 5879 5878 5877 5876 5875 5874 5873 5872 5872 5871 5871 5870 5869 5869 5869 5869 5869 5869
5872 5873 5875 5876 5877 5878 5880 5881 5881 5882 5882 5883 5884 5884 5884 5884 5884 5884 5883 5883 5882 5882 5881 5880 5880 5879 5878 5877 5876 5875 5874 5874 5872 5871 5871 5870 5869 5869 5868 5868 5868 5867 5867
5871 5872 5874 5875 5876 5877 5878 5880 5880 5881 5881 5882 5883 5883 5883 5883 5883 5883 5883 5882 5882 5881 5881 5880 5879 5878 5877 5877 5876 5875 5874 5873 5872 5871 5870 5869 5869 5868 5868 5867 5866 5866 5866
5870 5871 5873 5874 5875 5876 5877 5878 5879 5880 5880 5881 5882 5882 5882 5882 5882 5882 5882 5882 5882 5881 5880 5880 5879 5878 5877 5876 5875 5874 5874 5873 5872 5871 5870 5869 5868 5868 5867 5866 5865 5865 5864
5868 5870 5871 5873 5874 5875 5875 5876 5877 5878 5879 5880 5880 5881 5881 5881 5881 5881 5881 5881 5881 5880 5880 5879 5878 5877 5876 5876 5875 5874 5873 5872 5871 5871 5870 5869 5868 5867 5866 5865 5864 5863 5863
5867 5868 5870 5871 5872 5873 5874 5875 5876 5876 5877 5878 5878 5879 5880 5880 5880 5880 5880 5880 5880 5879 5879 5878 5877 5877 5876 5875 5874 5873 5872 5872 5871 5870 5869 5868 5867 5866 5865 5864 5863 5862 5861